Regional Weather Roundup
Issued by NWS

Home | Current Version | Previous Version | Graphics & Text | Print | Product List | Glossary On
Versions: 1 2 3 4 5 6 7 8 9 10 11 12 13 14 15 16 17 18 19 20 21 22 23 24 25 26 27 28 29 30 31 32 33 34 35 36 37 38 39 40 41 42 43 44 45 46 47 48 49 50
000
ASUS43 KOAX 241510
RWRNE

WEATHER ROUNDUP FOR NEBRASKA
NATIONAL WEATHER SERVICE OMAHA NE
1000 AM CDT WED AUG 24 2016

NOTES: SATELLITE DATA IS BEING USED TO AUGMENT CLOUD COVER ABOVE
       12000 FEET.
       "FAIR" INDICATES FEW OR NO CLOUDS BELOW 12,000 FEET WITH NO
       SIGNIFICANT WEATHER AND/OR OBSTRUCTIONS TO VISIBILITY.

  * THESE STATIONS DO NOT REPORT WEATHER SUCH AS RAIN...SNOW OR FOG.

NEZ001>004-019>022-054>056-241600-
NEBRASKA PANHANDLE

CITY           SKY/WX    TMP DP  RH WIND       PRES   REMARKS
SCOTTSBLUFF    CLOUDY    61  42  49 E6        30.22R
ALLIANCE       CLOUDY    57  47  69 N10       30.22R
CHADRON        CLOUDY    61  38  42 E3        30.21R
KIMBALL        LGT RAIN  59  46  62 NE5       30.26R
SIDNEY         CLOUDY    64  41  42 E8        30.23R
$$

NEZ057>060-069>072-079>082-241600-
SOUTHWEST NEBRASKA

CITY           SKY/WX    TMP DP  RH WIND       PRES   REMARKS
NORTH PLATTE   CLOUDY    65  48  54 NE7       30.12R
IMPERIAL       CLOUDY    64  46  52 N10       30.15R
LEXINGTON      CLOUDY    63  53  70 N5        30.08S
MCCOOK         PTSUNNY   67  46  47 NE15      30.06F
OGALLALA       CLOUDY    69  36  30 N9        30.15F
$$

NEZ005>010-023>029-035>040-094-241600-
NORTH CENTRAL NEBRASKA

CITY           SKY/WX    TMP DP  RH WIND       PRES   REMARKS
VALENTINE      CLOUDY    63  42  46 N16G24    30.13R
AINSWORTH      CLOUDY    61  45  56 NW9       30.13R
BROKEN BOW     CLOUDY    62  52  69 NW3       30.11R
O`NEILL        CLOUDY    64  50  60 NW9       30.08R
ORD            CLOUDY    65  48  54 CALM      30.06R
THEDFORD       PTSUNNY   65  45  49 W8        30.16R
$$

NEZ041-046>049-061>064-073>077-083>087-241600-
SOUTH CENTRAL NEBRASKA

CITY           SKY/WX    TMP DP  RH WIND       PRES   REMARKS
GRAND ISLAND   CLOUDY    69  52  54 N12       30.04F
AURORA         CLOUDY    70  57  62 N12       30.03R
HASTINGS       PTSUNNY   70  54  56 N13       30.04R
HEBRON         CLOUDY    73  67  82 E9        29.99S
HOLDREGE       CLOUDY    63  52  67 N5        30.07R
KEARNEY *      PTSUNNY   64  50  59 N12       30.06R
YORK           CLOUDY    72  57  60 N13       30.02R
$$

NEZ011>018-030>034-042>045-241600-
NORTHEAST NEBRASKA

CITY           SKY/WX    TMP DP  RH WIND       PRES   REMARKS
NORFOLK        CLOUDY    66  54  65 NW3       30.04R
ALBION         PTSUNNY   64  54  68 NW3       30.05S
BLAIR          MOSUNNY   72  63  73 N12       29.98S
FREMONT        CLOUDY    71  59  66 NW5       30.01R
TEKAMAH        MOSUNNY   73  62  68 N9        29.98R
WAYNE          CLOUDY    68  58  69 NW6       30.02R
$$

NEZ050>053-065>068-078-088>093-241600-
SOUTHEAST NEBRASKA

CITY           SKY/WX    TMP DP  RH WIND       PRES   REMARKS
LINCOLN        MOSUNNY   76  59  55 N13       29.99R
OMAHA EPPLEY   CLOUDY    74  65  73 N12       29.97R
BEATRICE       CLOUDY    72  66  79 NE5       30.00R
FALLS CITY     CLOUDY    71  67  87 E3        29.97R
NEBRASKA CITY  CLOUDY    70  69  96 S3        29.99S
PLATTSMOUTH    MOSUNNY   74  67  76 N5        29.98R
$$

NEZ044-045-051>053-067-241600-
OMAHA AREA

CITY           SKY/WX    TMP DP  RH WIND       PRES   REMARKS
OMAHA EPPLEY   CLOUDY    74  65  73 N12       29.97R
BLAIR          MOSUNNY   72  63  73 N12       29.98S
FREMONT        CLOUDY    71  59  66 NW5       30.01R
MILLARD        MOSUNNY   74  63  68 NW12      29.98R
OFFUTT AFB     MOSUNNY   74  66  75 NW8       29.97R
PLATTSMOUTH    MOSUNNY   74  67  76 N5        29.98R
WAHOO          FAIR      71  60  66 N12G17    29.99S
$$



USA.gov is the U.S. government's official web portal to all federal, state and local government web resources and services.